Location: USNO
(38.9242°N, 77.0663°W)
Time: 11:05:42
(UTC-04:00)

Daily predictions for brighter satellites

Satellite Brightness Start Highest point End
(mag) Time Altitude Azimuth Time Altitude Azimuth Time Altitude Azimuth
Cosmos 1110 Rocket 4.4 20:14:33 10° SSW 20:19:48 71° WNW 20:25:07 10° NNE
Cosmos 1892 2.7 20:16:22 10° N 20:20:07 62° E 20:23:53 10° SSE
Cosmos 2263 Rocket 3.9 20:18:46 10° NNE 20:22:13 16° NE 20:25:40 10° E
Cosmos 1400 Rocket 2.7 20:18:27 10° N 20:22:22 77° E 20:26:17 10° SSE
Cosmos 2322 Rocket 2.9 20:21:49 10° SSE 20:26:37 30° ESE 20:31:26 10° NE
Meteor 1-29 4.4 20:25:54 10° NE 20:28:30 19° E 20:31:04 10° SE
H-2A R/B 2.8 20:25:01 10° SSE 20:28:55 87° W 20:32:49 10° NNW
Cosmos 1302 Rocket 3.9 20:25:53 10° S 20:31:02 72° ESE 20:36:14 10° NNE
Envisat 3.9 20:26:39 10° SE 20:31:04 31° ENE 20:35:32 10° N
Meteor 2-3 Rocket 4.0 20:25:54 10° NNW 20:31:37 80° W 20:37:22 10° S
Cosmos 1315 Rocket 2.9 20:31:56 10° N 20:35:58 56° E 20:39:54 10° SSE
Cosmos 2360 Rocket 3.8 20:34:54 10° SE 20:37:26 13° E 20:39:58 10° ENE
Cosmos 1980 Rocket 2.5 20:32:00 10° SSW 20:37:40 75° WNW 20:43:23 10° NNE
USA 234 3.7 20:35:36 10° ESE 20:41:55 52° NE 20:48:15 10° NW
Cosmos 2026 Rocket 4.4 20:37:32 10° N 20:43:26 43° ENE 20:49:13 10° SSE
Intercosmos 25 Rocket 3.8 20:43:35 10° SSE 20:46:23 29° E 20:49:37 10° NNE
OTV 4 2.7 20:45:20 10° WSW 20:47:08 15° SSW 20:48:57 10° SSE
CZ-2D R/B 3.5 20:45:26 10° S 20:49:19 74° W 20:53:13 10° NNW
Cosmos 1825 3.0 20:46:18 10° NNE 20:49:45 32° ENE 20:52:20 15° SE
SL-16 R/B 2.3 20:48:40 10° S 20:54:08 52° ESE 20:59:37 10° NNE
Cosmos 1634 Rocket 4.0 20:55:11 10° S 21:01:28 86° E 21:07:50 10° N
ATLAS 5 CENTAUR R/B 3.8 20:57:17 10° N 21:02:07 25° NE 21:06:11 14° E
Cosmos 1862 4.1 20:58:59 10° NNE 21:02:39 33° ENE 21:04:33 22° SE
Cosmos 1707 Rocket 4.2 20:59:19 10° SSW 21:03:41 59° W 21:08:05 10° N
Cosmos 1092 Rocket 4.3 20:57:58 10° N 21:04:17 75° W 21:10:37 10° S
Helios 1B rocket 2.3 21:00:49 10° NNE 21:04:56 80° ESE 21:09:02 10° S
ERS-1 Rocket 3.9 21:02:10 18° ESE 21:04:57 31° ENE 21:09:21 10° N
USA 186 2.3 21:03:04 10° S 21:05:38 48° W 21:08:24 10° NNW
Lacrosse 4 Rocket 1.9 21:02:09 10° NNW 21:06:21 47° ENE 21:08:46 23° ESE
Cosmos 1655 Rocket 4.2 21:03:59 10° N 21:10:18 58° E 21:15:36 15° SSE
SAR-Lupe-4 3.5 21:08:00 14° SSE 21:11:02 85° WSW 21:14:39 10° NNW
ERBS 2.3 21:07:44 10° NW 21:11:11 76° NE 21:12:44 30° SE
Cosmos 1939 Rocket 2.9 21:08:25 19° SSE 21:11:15 61° ENE 21:15:13 10° N
Cosmos 1733 Rocket 3.4 21:07:27 10° N 21:11:46 47° E 21:14:14 23° SE
Meteor 2-20 Rocket 4.4 21:06:13 10° N 21:12:22 78° E 21:18:30 10° S
Cosmos 1862 Rocket 3.7 21:13:00 13° SSE 21:16:47 52° E 21:21:09 10° NNE
SeaSat 1 3.9 21:17:14 18° E 21:19:15 23° NE 21:23:03 10° N
USA 229 DEB 4.4 21:15:50 10° SSE 21:21:30 29° ESE 21:27:14 10° NE
USA 229 4.4 21:15:57 10° SSE 21:21:36 29° ESE 21:27:19 10° NE
Cosmos 1992 Rocket 3.9 21:18:30 10° S 21:23:40 69° ESE 21:28:54 10° NNE
Cosmos 1408 2.6 21:21:34 10° N 21:25:16 78° W 21:27:28 23° S
Atlas Centaur 2 3.5 21:21:50 10° SW 21:28:16 35° SSE 21:31:32 26° ESE
Cosmos 2242 Rocket 4.3 21:30:49 10° SSW 21:35:15 56° W 21:39:41 10° N
Cosmos 1703 Rocket 4.4 21:37:03 31° E 21:37:03 31° E 21:40:46 10° NNE
Helios 1A 4.4 21:36:36 10° SSW 21:40:30 37° W 21:44:28 10° NNW
Cosmos 2279 Rocket 4.1 21:36:31 10° S 21:42:45 78° W 21:49:00 10° N
Cosmos 1503 Rocket 4.4 21:39:50 10° NNW 21:45:01 59° WSW 21:48:09 23° S
MetOp-A 4.2 21:47:17 40° SE 21:48:59 59° ENE 21:54:15 10° N
Cosmos 1867 4.3 21:45:37 10° NNW 21:50:44 39° NE 21:52:05 34° E
H-2A R/B 3.1 21:52:50 27° ENE 21:53:02 27° ENE 21:57:12 10° N
OAO 3 Rocket 3.3 21:51:24 10° W 21:56:12 55° S 21:56:39 53° SSE
YAOGAN 6 3.0 21:56:56 49° SW 21:57:33 58° W 22:01:09 10° NNW
SPOT 5 2.8 22:04:10 58° ESE 22:04:39 61° ENE 22:09:18 10° N
Cosmos 968 Rocket 3.5 22:01:02 10° NNW 22:06:12 64° ENE 22:06:50 58° ESE
Cosmos 2263 Rocket 2.2 22:01:10 10° NNW 22:06:44 74° WSW 22:08:25 46° S
COSMOS 2428 3.7 22:10:12 30° ENE 22:10:12 30° ENE 22:13:41 10° NE
Meteor 2-10 Rocket 3.8 22:05:37 23° SSW 22:09:25 80° W 22:15:15 10° N
Cosmos 2322 Rocket 3.7 22:05:23 10° SW 22:10:30 36° WNW 22:15:40 10° N
Meteor 1-25 Rocket 4.5 22:05:08 10° N 22:10:31 47° ENE 22:10:47 47° E
Sich 1 Rocket 3.6 22:11:48 10° N 22:16:16 77° W 22:16:31 73° SW
Cosmos 2360 Rocket 2.3 22:15:49 14° SSW 22:20:40 76° WNW 22:26:21 10° NNE
H-2A R/B 3.6 22:23:59 25° NE 22:23:59 25° NE 22:26:25 10° N
USA 234 3.9 22:22:52 35° S 22:24:56 45° SW 22:31:11 10° WNW
Cosmos 2322 3.8 22:25:27 29° SSW 22:28:32 77° WNW 22:34:16 10° NNE
Cosmos 1908 Rocket 4.1 22:24:34 10° NNW 22:28:48 53° W 22:28:49 53° W
Meteor 1-20 Rocket 4.2 22:24:43 10° N 22:30:09 63° ENE 22:30:09 63° ENE
USA 245 4.3 22:30:44 61° SSW 22:31:45 77° WSW 22:37:04 10° NNW
SL-16 R/B 4.5 22:34:07 10° WSW 22:38:32 23° NW 22:42:58 10° N
SPOT 1/Viking Rocket 3.5 22:40:22 84° NW 22:40:22 84° NW 22:45:28 10° NNW
Cosmos 1782 Rocket 4.3 22:38:32 10° NNW 22:41:59 51° NW 22:41:59 51° NW
Lacrosse 4 Rocket 3.9 22:42:07 10° WNW 22:44:40 15° WSW 22:45:08 15° WSW
Okean 2 Rocket 3.9 22:41:39 10° N 22:44:59 49° N 22:44:59 49° N
ATLAS 5 CENTAUR R/B 2.4 22:41:15 10° NW 22:47:19 69° WSW 22:47:45 67° SSW
Cosmos 2333 Rocket 4.0 22:52:12 20° NE 22:52:12 20° NE 22:54:09 10° NE
ARGOS 3.7 22:52:58 48° WSW 22:53:17 49° W 22:58:28 10° NNW
Milstar 3 4.2 22:49:38 10° WSW 22:53:10 21° SW 22:53:10 21° SW
Cosmos 2237 Rocket 4.3 22:59:46 15° NE 22:59:46 15° NE 23:00:50 10° NE
SeaSat 1 3.2 22:57:02 47° W 22:57:02 47° W 23:01:15 10° NW
Cosmos 2278 Rocket 3.6 22:55:58 10° N 23:00:07 27° NE 23:00:07 27° NE
Terra 2.9 23:10:04 41° N 23:10:04 41° N 23:13:09 10° N
Cosmos 1844 Rocket 3.1 23:04:35 10° NNW 23:09:04 58° N 23:09:04 58° N
USA 229 DEB 4.3 23:05:24 10° SW 23:12:03 54° NW 23:18:52 10° NNE
USA 229 4.3 23:05:30 10° SW 23:12:09 55° NW 23:18:57 10° NNE
Atlas Centaur 2 3.9 23:09:57 10° WSW 23:14:12 32° SW 23:14:12 32° SW
Cosmos 2219 Rocket 3.2 23:28:37 39° NNE 23:28:37 39° NNE 23:32:03 10° NNE
CZ-4C R/B 3.4 23:24:56 10° NNW 23:31:48 46° NE 23:32:09 46° ENE
H-2A R/B 3.6 23:33:27 29° WNW 23:33:27 29° WNW 23:36:46 10° NW
COSMOS 2428 4.2 23:52:07 30° WNW 23:52:47 30° WNW 23:57:47 10° N
H-2A R/B 4.4 23:25:46 10° W 23:51:34 37° SW 23:51:34 37° SW
